Weather History for Logansport, IN

Change the Weather History Date:

Tuesday, February 12, 2013

  Actual Average Record
Temperature  
Mean Temperature 29 °F -  
Max Temperature 32 °F 35 °F 32 °F (2013)
Min Temperature 26 °F 23 °F -9 °F (2014)
Degree Days  
Heating Degree Days 36    
Moisture  
Dew Point 24 °F    
Average Humidity 78    
Maximum Humidity 93    
Minimum Humidity 69    
Precipitation  
Precipitation 0.00 in - - ()
Sea Level Pressure  
Sea Level Pressure 30.05 in    
Wind  
Wind Speed 10 mph (West)    
Max Wind Speed 17 mph    
Max Gust Speed 24 mph    
Visibility 10 miles    
Events      
Averages and records for this station are not official NWS values.
T = Trace of Precipitation, MM = Missing Value Source: NWS Daily Summary

Daily Weather History Graph

Daily Weather History Graph

Search for Another Location

Airport:

Trip Planner

Search our weather history database for the weather conditions in past years. The results will help you decide how hot, cold, wet, or windy it might be!

Date:

Astronomy

Feb. 12, 2013 Rise Set
Actual Time 7:42 AM EST 6:17 PM EST
Civil Twilight 7:14 AM EST 6:45 PM EST
Nautical Twilight 6:42 AM EST 7:17 PM EST
Astronomical Twilight 6:10 AM EST 7:49 PM EST
Moon 8:38 AM EST (2/12) 9:18 PM EST (2/12)
Length of Visible Light 11h 30m
Length of Day
10h 34m
Waxing Crescent, 7% of the Moon is Illuminated
Feb 12
Waxing Crescent
Feb 17
First Quarter
Feb 25
Full
Mar 4
Last Quarter
Mar 11
New

Hourly Weather History & Observations

Time (EST) Temp. Windchill Dew Point Humidity Pressure Visibility Wind Dir Wind Speed Gust Speed Precip Events Conditions
12:15 AM 32.0 °F 20.8 °F 24.8 °F 75% 30.03 in 10.0 mi WNW 17.3 mph 23.0 mph N/A   Overcast
12:35 AM 32.0 °F 22.5 °F 24.8 °F 75% 30.04 in 10.0 mi West 12.7 mph - N/A   Overcast
12:55 AM 32.0 °F 23.0 °F 24.8 °F 75% 30.04 in 10.0 mi West 11.5 mph 18.4 mph N/A   Overcast
1:15 AM 32.0 °F 23.6 °F 24.8 °F 75% 30.04 in 10.0 mi West 10.4 mph 19.6 mph N/A   Overcast
1:35 AM 32.0 °F 23.0 °F 24.8 °F 75% 30.05 in 10.0 mi West 11.5 mph 18.4 mph N/A   Overcast
1:55 AM 32.0 °F 22.1 °F 24.8 °F 75% 30.05 in 10.0 mi West 13.8 mph 21.9 mph N/A   Overcast
2:15 AM 32.0 °F 22.1 °F 24.8 °F 75% 30.06 in 10.0 mi West 13.8 mph 24.2 mph N/A   Overcast
2:35 AM 30.2 °F 20.8 °F 23.0 °F 75% 30.06 in 10.0 mi WNW 11.5 mph 17.3 mph N/A   Overcast
2:55 AM 30.2 °F 21.3 °F 23.0 °F 75% 30.07 in 10.0 mi West 10.4 mph - N/A   Overcast
3:15 AM 30.2 °F 21.3 °F 23.0 °F 75% 30.07 in 10.0 mi West 10.4 mph - N/A   Overcast
3:35 AM 30.2 °F 19.3 °F 23.0 °F 75% 30.07 in 10.0 mi West 15.0 mph 20.7 mph N/A   Overcast
3:55 AM 30.2 °F 18.9 °F 24.8 °F 80% 30.08 in 10.0 mi West 16.1 mph 21.9 mph N/A   Overcast
4:15 AM 30.2 °F 18.9 °F 23.0 °F 75% 30.08 in 10.0 mi WNW 16.1 mph 23.0 mph N/A   Overcast
4:35 AM 30.2 °F 19.8 °F 23.0 °F 75% 30.08 in 10.0 mi WNW 13.8 mph 21.9 mph N/A   Overcast
4:55 AM 30.2 °F 19.3 °F 21.2 °F 69% 30.08 in 10.0 mi West 15.0 mph 21.9 mph N/A   Overcast
5:15 AM 30.2 °F 20.8 °F 23.0 °F 75% 30.09 in 10.0 mi WNW 11.5 mph - N/A   Overcast
5:35 AM 30.2 °F 22.6 °F 23.0 °F 75% 30.09 in 10.0 mi WNW 8.1 mph - N/A   Overcast
5:55 AM 30.2 °F 20.8 °F 21.2 °F 69% 30.09 in 10.0 mi West 11.5 mph - N/A   Overcast
6:15 AM 30.2 °F 20.8 °F 21.2 °F 69% 30.09 in 10.0 mi West 11.5 mph - N/A   Overcast
6:35 AM 30.2 °F 23.4 °F 21.2 °F 69% 30.09 in 10.0 mi NW 6.9 mph - N/A   Overcast
7:15 AM 28.4 °F 22.2 °F 23.0 °F 80% 30.09 in 10.0 mi West 5.8 mph - N/A   Overcast
7:35 AM 28.4 °F 21.2 °F 23.0 °F 80% 30.10 in 10.0 mi West 6.9 mph - N/A   Overcast
7:55 AM 28.4 °F 21.2 °F 23.0 °F 80% 30.10 in 10.0 mi West 6.9 mph - N/A   Overcast
8:15 AM 28.4 °F 20.4 °F 23.0 °F 80% 30.10 in 10.0 mi West 8.1 mph - N/A   Overcast
8:35 AM 30.2 °F 23.4 °F 23.0 °F 75% 30.10 in 10.0 mi West 6.9 mph - N/A   Overcast
8:55 AM 28.4 °F 20.4 °F 23.0 °F 80% 30.11 in 10.0 mi West 8.1 mph - N/A   Mostly Cloudy
9:15 AM 28.4 °F 19.1 °F 23.0 °F 80% 30.12 in 10.0 mi West 10.4 mph - N/A   Mostly Cloudy
9:35 AM 30.2 °F 22.6 °F 23.0 °F 75% 30.12 in 10.0 mi West 8.1 mph - N/A   Overcast
9:55 AM 30.2 °F 22.6 °F 23.0 °F 75% 30.11 in 10.0 mi West 8.1 mph - N/A   Overcast
10:15 AM 30.2 °F 24.3 °F 23.0 °F 75% 30.10 in 10.0 mi West 5.8 mph - N/A   Mostly Cloudy
10:35 AM 30.2 °F 23.4 °F 23.0 °F 75% 30.10 in 10.0 mi WNW 6.9 mph - N/A   Mostly Cloudy
10:55 AM 30.2 °F 25.4 °F 23.0 °F 75% 30.10 in 10.0 mi SW 4.6 mph - N/A   Overcast
11:15 AM 32.0 °F 28.7 °F 23.0 °F 69% 30.11 in 10.0 mi WSW 3.5 mph - N/A   Overcast
11:35 AM 32.0 °F 24.8 °F 24.8 °F 75% 30.10 in 10.0 mi West 8.1 mph - N/A   Overcast
11:55 AM 32.0 °F 24.8 °F 24.8 °F 75% 30.09 in 10.0 mi West 8.1 mph - N/A   Overcast
12:15 PM 32.0 °F 24.8 °F 26.6 °F 80% 30.08 in 10.0 mi WSW 8.1 mph - N/A   Overcast
12:35 PM 32.0 °F 25.6 °F 26.6 °F 80% 30.06 in 10.0 mi West 6.9 mph - N/A   Mostly Cloudy
12:55 PM 32.0 °F 24.8 °F 24.8 °F 75% 30.05 in 10.0 mi WSW 8.1 mph - N/A   Mostly Cloudy
1:15 PM 32.0 °F 23.0 °F 26.6 °F 80% 30.03 in 10.0 mi WSW 11.5 mph 17.3 mph N/A   Overcast
1:35 PM 32.0 °F 23.6 °F 26.6 °F 80% 30.03 in 10.0 mi West 10.4 mph - N/A   Overcast
1:55 PM 32.0 °F 24.2 °F 26.6 °F 80% 30.03 in 10.0 mi West 9.2 mph - N/A   Overcast
2:15 PM 32.0 °F 24.8 °F 24.8 °F 75% 30.03 in 10.0 mi West 8.1 mph - N/A   Overcast
2:35 PM 32.0 °F 24.2 °F 26.6 °F 80% 30.04 in 10.0 mi West 9.2 mph 16.1 mph N/A   Overcast
2:55 PM 32.0 °F 24.2 °F 26.6 °F 80% 30.04 in 10.0 mi West 9.2 mph - N/A   Overcast
3:15 PM 32.0 °F 23.6 °F 26.6 °F 80% 30.05 in 10.0 mi West 10.4 mph - N/A   Overcast
3:35 PM 32.0 °F 24.2 °F 26.6 °F 80% 30.05 in 10.0 mi West 9.2 mph - N/A   Overcast
3:55 PM 32.0 °F 22.5 °F 26.6 °F 80% 30.05 in 10.0 mi West 12.7 mph - N/A   Overcast
4:15 PM 32.0 °F 23.6 °F 26.6 °F 80% 30.04 in 10.0 mi West 10.4 mph - N/A   Overcast
4:35 PM 32.0 °F 24.2 °F 26.6 °F 80% 30.04 in 10.0 mi West 9.2 mph - N/A   Overcast
4:55 PM 32.0 °F 24.2 °F 26.6 °F 80% 30.03 in 10.0 mi West 9.2 mph - N/A   Overcast
5:15 PM 32.0 °F 24.2 °F 26.6 °F 80% 30.02 in 10.0 mi WSW 9.2 mph - N/A   Overcast
5:35 PM 32.0 °F 23.6 °F 26.6 °F 80% 30.01 in 10.0 mi WSW 10.4 mph - N/A   Overcast
5:55 PM 32.0 °F 25.6 °F 26.6 °F 80% 30.01 in 10.0 mi West 6.9 mph - N/A   Overcast
6:15 PM 30.2 °F 21.9 °F 26.6 °F 86% 30.01 in 10.0 mi West 9.2 mph - N/A   Overcast
6:35 PM 30.2 °F 22.6 °F 26.6 °F 86% 30.01 in 10.0 mi West 8.1 mph - N/A   Overcast
6:55 PM 30.2 °F 21.9 °F 26.6 °F 86% 30.01 in 10.0 mi WNW 9.2 mph - N/A   Overcast
7:15 PM 30.2 °F 23.4 °F 26.6 °F 86% 30.00 in 10.0 mi West 6.9 mph - N/A   Overcast
7:35 PM 30.2 °F 23.4 °F 26.6 °F 86% 29.99 in 10.0 mi West 6.9 mph - N/A   Overcast
7:55 PM 30.2 °F 23.4 °F 24.8 °F 80% 29.99 in 10.0 mi WNW 6.9 mph - N/A   Overcast
8:15 PM 30.2 °F 23.4 °F 24.8 °F 80% 29.99 in 10.0 mi WNW 6.9 mph - N/A   Overcast
8:35 PM 30.2 °F 22.6 °F 24.8 °F 80% 29.99 in 10.0 mi West 8.1 mph - N/A   Overcast
9:15 PM 30.2 °F 26.7 °F 24.8 °F 80% 29.97 in 10.0 mi WNW 3.5 mph - N/A   Overcast
9:55 PM 30.2 °F 25.4 °F 23.0 °F 75% 29.97 in 10.0 mi WNW 4.6 mph - N/A   Overcast
10:15 PM 28.4 °F - 23.0 °F 80% 29.97 in 10.0 mi Calm Calm - N/A   Mostly Cloudy
10:35 PM 28.4 °F - 23.0 °F 80% 29.97 in 10.0 mi Calm Calm - N/A   Scattered Clouds
10:55 PM 28.4 °F - 23.0 °F 80% 29.97 in 10.0 mi Calm Calm - N/A   Clear
11:15 PM 26.6 °F - 23.0 °F 86% 29.95 in 10.0 mi Calm Calm - N/A   Clear
11:35 PM 28.4 °F - 23.0 °F 80% 29.94 in 10.0 mi Calm Calm - N/A   Clear
11:55 PM 26.6 °F - 24.8 °F 93% 29.94 in 10.0 mi Calm Calm - N/A   Clear